Wind_Speed
27 27 27 27 27 27 27 28 28 28 28 28 28 28 28 29 28 27 28 28 27 27 26 26 26 25 24 23 22 21 19 18 18 18 18 18 19 19 20 20 21 21 21
30 30 30 29 29 30 30 31 31 31 30 30 30 30 30 30 30 28 29 29 29 29 28 27 27 26 25 23 21 20 19 19 18 18 18 19 19 19 20 21 21 22 23
32 32 33 33 32 33 33 33 34 34 34 33 33 32 32 32 32 30 29 30 31 30 30 29 28 26 25 23 22 21 20 20 20 20 20 20 20 20 21 22 23 23 24
36 35 35 36 37 37 37 37 37 37 37 37 36 35 35 34 34 33 31 30 31 32 31 30 29 28 26 25 24 23 23 23 22 22 22 22 22 23 23 24 24 25 26
38 39 39 39 40 40 41 41 41 41 41 41 40 39 38 37 36 35 33 32 32 33 33 32 31 30 28 27 27 26 26 26 26 25 25 25 26 26 26 27 27 27 28
41 42 42 42 42 43 43 44 44 44 44 44 44 43 42 40 39 38 36 35 34 34 34 34 33 33 32 31 30 30 29 29 29 28 29 29 29 29 30 30 30 30 30
44 44 45 45 45 46 46 46 47 47 47 48 48 47 46 44 42 41 40 38 37 36 36 36 36 35 35 34 34 33 32 32 32 32 32 32 33 33 33 33 34 33 33
47 48 49 49 49 49 49 49 50 50 50 51 51 51 50 48 45 44 43 42 40 39 39 39 39 38 38 38 37 36 36 36 35 35 35 36 36 36 36 37 37 37 37
48 50 51 52 53 53 53 53 53 53 53 53 54 54 53 50 49 47 46 45 44 43 42 42 42 42 41 40 40 40 39 39 38 38 39 39 39 40 40 40 40 40 40
49 50 51 53 55 56 56 56 56 56 56 56 56 55 55 54 52 50 49 48 47 46 45 45 44 44 44 43 42 42 42 42 41 41 42 42 43 43 44 44 44 44 44
49 50 52 54 55 57 58 59 60 60 59 59 58 58 58 57 55 54 52 50 49 49 48 47 47 46 45 45 44 44 45 44 44 45 45 46 46 47 47 47 47 48 48
49 50 52 54 56 58 59 60 62 62 62 62 61 60 59 59 58 57 55 53 52 51 51 51 50 49 48 48 47 47 47 46 46 47 49 50 50 50 50 51 51 51 52
49 51 53 54 57 58 60 62 63 64 64 64 64 63 61 60 60 59 58 57 55 54 53 53 52 52 52 50 48 49 49 48 48 49 51 52 53 54 54 54 55 56 56
49 51 52 54 57 60 62 64 65 66 66 66 65 64 63 61 60 60 59 58 57 55 54 54 54 53 52 51 50 50 50 50 50 51 53 54 55 56 57 58 59 59 60
48 51 53 55 58 61 63 65 66 67 67 66 65 64 63 61 60 59 59 58 58 57 56 55 55 54 54 53 53 52 52 51 52 54 57 58 59 60 61 62 62 63 64
47 49 52 56 59 62 64 65 65 64 64 63 62 62 61 61 60 59 58 58 58 58 57 56 57 57 55 54 52 52 53 55 56 57 60 62 63 63 64 65 66 66 67
46 49 52 54 57 58 59 60 59 58 57 57 57 57 57 58 58 57 56 56 58 58 58 57 56 56 57 55 54 55 57 57 59 61 63 64 65 65 67 67 68 69 69
44 47 49 50 52 52 51 51 51 50 50 50 51 52 52 53 54 54 55 55 56 57 57 59 60 58 58 59 60 60 60 61 62 64 66 67 67 67 68 68 69 70 71
41 43 44 45 44 43 42 41 40 40 40 41 43 45 46 48 49 50 52 54 55 55 56 57 57 58 60 60 61 62 63 64 65 66 67 67 67 68 69 70 71 72 73
39 39 39 39 38 38 36 34 33 32 33 34 35 37 40 41 44 46 48 50 52 53 54 55 56 57 58 60 62 63 63 64 65 66 67 67 69 70 71 72 73 73 74
35 35 35 35 34 33 32 29 28 27 27 28 30 32 35 36 38 40 42 44 45 47 48 50 52 55 57 58 60 61 61 62 64 65 67 69 70 71 72 72 72 72 72
32 32 32 31 30 29 27 25 23 21 21 22 23 25 27 28 31 34 36 38 40 42 44 46 49 52 54 55 57 58 60 62 64 66 67 69 70 69 68 68 67 66 65
29 29 28 27 26 25 23 21 19 17 16 16 17 19 21 23 26 29 30 31 34 37 40 43 45 47 49 51 54 57 60 62 65 66 66 64 64 62 61 60 59 57 55
26 26 25 24 22 21 20 19 17 16 14 13 13 13 15 17 20 22 25 28 31 33 36 39 42 45 48 52 55 58 60 62 64 63 61 58 57 55 54 53 52 49 48
23 22 21 20 20 19 18 17 17 15 14 13 13 12 13 14 17 19 22 25 28 31 35 39 43 47 51 54 57 59 59 59 58 57 55 52 50 47 47 47 45 44 42
20 20 19 19 18 18 17 16 16 15 14 13 12 14 15 16 18 21 24 27 31 35 39 42 46 49 52 55 56 56 55 54 52 50 49 47 45 43 39 40 42 42 41
Wind_Direction
288 287 286 285 286 286 286 285 284 284 286 287 287 287 287 286 285 284 283 283 283 284 285 286 288 288 289 289 291 294 297 300 303 304 303 301 299 296 293 289 286 284 282
287 286 285 284 284 284 284 284 284 284 285 286 286 287 287 286 285 283 282 282 282 282 283 284 286 287 286 287 288 290 293 296 299 301 302 301 299 297 295 292 288 285 282
286 286 285 284 282 281 281 282 283 283 284 284 284 285 285 286 285 283 281 281 281 281 281 282 284 285 284 284 284 286 289 292 295 297 298 299 298 297 295 293 290 287 284
285 285 284 284 283 282 281 281 281 282 282 282 282 282 283 283 283 283 281 280 280 279 279 280 281 282 281 281 282 284 286 288 290 291 293 294 294 294 294 292 291 289 287
285 285 285 284 284 283 283 283 281 280 280 280 280 281 281 281 280 280 280 280 278 278 278 278 279 279 278 279 279 281 283 284 285 286 288 289 290 291 291 290 290 289 288
286 285 285 284 284 283 282 282 281 279 279 279 279 278 278 278 278 279 278 277 276 275 276 276 276 276 276 277 278 279 281 281 282 283 284 285 286 287 288 288 288 287 287
285 284 283 282 282 281 280 279 278 278 277 277 277 276 275 275 276 277 276 275 274 274 274 274 275 275 275 276 277 278 278 279 279 280 281 282 283 283 284 284 285 285 285
282 282 282 282 281 280 279 278 277 276 275 275 275 274 274 274 274 274 273 273 273 273 273 273 273 273 274 275 276 277 277 277 278 278 279 280 280 281 281 281 282 282 283
280 281 281 281 280 280 279 278 277 276 275 274 274 274 274 273 272 272 272 272 272 273 273 273 272 272 272 273 275 275 275 275 276 277 278 279 279 279 280 280 279 280 280
278 279 279 279 279 279 279 278 277 276 274 273 273 272 272 271 271 270 270 271 272 273 273 274 274 274 273 272 274 275 275 274 275 277 277 278 279 280 279 279 279 278 278
279 279 279 279 279 279 278 278 277 276 274 273 271 270 270 270 270 270 269 270 271 272 273 274 275 276 276 275 275 275 274 274 276 276 277 278 278 279 279 279 279 278 278
281 281 281 281 280 279 279 278 276 275 274 272 270 269 268 268 269 268 268 268 270 271 273 274 276 276 276 276 275 276 275 275 276 277 278 279 279 280 280 280 280 279 278
284 284 284 283 282 281 280 278 276 274 272 271 269 268 266 266 266 266 267 267 268 270 272 274 275 275 276 275 275 276 275 275 277 279 280 280 279 280 280 279 280 279 279
287 287 287 286 285 283 281 279 276 274 271 269 267 265 264 264 264 265 265 266 267 269 272 273 274 276 276 276 278 277 276 276 279 280 281 281 281 281 281 280 280 280 280
291 291 290 289 287 285 283 280 277 274 270 267 265 264 262 261 261 261 262 264 266 268 270 271 273 276 278 277 278 277 278 280 282 282 283 283 283 283 282 281 281 281 281
295 295 294 293 292 289 286 283 279 274 270 266 264 262 260 258 258 258 259 261 263 265 269 272 274 277 278 280 276 279 281 282 284 284 285 284 285 285 283 282 282 282 281
298 299 298 297 295 292 289 285 281 276 271 267 263 261 258 257 256 256 257 259 261 263 266 269 274 276 277 279 282 284 284 284 285 286 286 286 286 285 285 284 284 283 282
302 303 303 302 301 299 295 290 284 279 273 268 264 260 257 255 254 254 255 256 259 262 265 268 272 274 278 283 285 288 288 286 286 287 288 288 287 287 286 286 285 285 284
306 308 309 309 308 307 302 297 289 282 276 270 265 260 256 254 253 253 255 256 259 263 266 270 273 277 280 283 285 287 288 288 288 288 289 289 289 288 287 287 286 285 284
309 313 315 316 315 314 310 302 294 287 279 271 265 261 257 254 253 254 256 258 261 264 268 270 274 278 281 283 285 287 288 288 289 290 290 290 290 290 289 288 287 286 285
311 317 320 321 322 321 316 309 302 294 285 276 269 263 259 255 254 255 257 260 262 266 270 273 276 279 282 284 286 287 289 290 291 291 292 292 292 292 291 290 289 288 287
313 318 323 325 327 327 323 318 312 303 294 284 276 268 261 258 256 258 260 262 264 268 271 274 277 280 283 285 287 289 291 292 292 293 295 295 295 294 293 292 291 289 288
315 320 325 329 331 332 331 328 323 315 305 296 286 277 268 262 260 260 264 266 269 272 275 277 281 284 286 289 291 293 294 295 295 296 297 297 297 296 294 293 292 291 290
317 320 326 331 335 337 337 334 329 325 317 306 296 288 280 272 272 272 271 273 276 279 282 285 287 289 291 292 294 296 298 298 299 299 299 299 298 297 296 294 294 293 292
321 325 330 334 337 338 338 337 334 331 323 314 307 302 295 290 287 285 286 288 289 290 291 293 294 295 296 298 300 301 302 302 302 301 302 301 299 298 297 296 296 296 296
324 328 333 336 337 339 340 340 341 340 336 330 321 316 311 308 305 303 301 299 298 298 298 298 299 300 302 303 304 304 304 304 303 302 303 302 300 298 297 297 296 296 297
Height
5847 5847 5847 5847 5846 5845 5844 5844 5843 5842 5841 5840 5839 5839 5838 5837 5837 5837 5835 5835 5834 5833 5832 5831 5830 5829 5828 5826 5825 5824 5823 5821 5820 5819 5818 5817 5816 5815 5815 5815 5815 5815 5815
5841 5841 5841 5841 5840 5840 5839 5838 5837 5836 5836 5835 5833 5833 5832 5831 5830 5831 5830 5829 5828 5827 5827 5826 5825 5823 5822 5821 5820 5819 5818 5817 5816 5814 5813 5812 5812 5811 5810 5810 5810 5810 5810
5835 5835 5834 5834 5833 5832 5832 5831 5830 5830 5829 5829 5827 5826 5825 5825 5824 5824 5824 5823 5822 5821 5820 5820 5819 5818 5816 5816 5815 5814 5813 5812 5811 5810 5809 5808 5807 5806 5805 5805 5804 5804 5804
5828 5828 5827 5827 5826 5825 5824 5824 5823 5823 5822 5821 5821 5820 5819 5818 5817 5816 5817 5817 5816 5814 5814 5813 5813 5812 5810 5810 5809 5808 5807 5806 5805 5804 5803 5802 5802 5801 5800 5799 5799 5798 5798
5820 5820 5820 5819 5818 5817 5816 5816 5815 5814 5813 5813 5812 5812 5811 5810 5809 5809 5809 5809 5809 5808 5807 5807 5806 5805 5804 5803 5802 5801 5800 5800 5799 5798 5797 5796 5795 5794 5794 5793 5792 5792 5791
5812 5811 5811 5810 5809 5808 5807 5806 5805 5805 5804 5804 5803 5803 5803 5802 5801 5801 5801 5801 5800 5800 5800 5799 5799 5798 5797 5796 5795 5794 5793 5792 5792 5791 5790 5789 5788 5787 5786 5785 5785 5784 5783
5803 5802 5801 5800 5799 5798 5797 5796 5795 5794 5794 5793 5792 5792 5792 5792 5793 5793 5792 5792 5791 5791 5791 5791 5790 5790 5789 5788 5787 5786 5785 5784 5784 5783 5782 5781 5780 5779 5778 5777 5776 5775 5775
5793 5792 5790 5789 5788 5787 5786 5785 5784 5783 5782 5782 5781 5780 5781 5783 5783 5783 5782 5782 5782 5781 5782 5781 5781 5781 5780 5779 5778 5777 5776 5775 5774 5773 5773 5772 5771 5770 5769 5768 5767 5766 5765
5784 5782 5780 5778 5776 5775 5774 5773 5772 5771 5771 5770 5769 5769 5770 5771 5771 5772 5771 5771 5772 5772 5771 5771 5771 5770 5770 5769 5768 5767 5766 5765 5764 5763 5762 5761 5760 5759 5758 5758 5757 5756 5755
5774 5772 5769 5767 5764 5763 5761 5760 5759 5758 5757 5757 5757 5757 5757 5757 5759 5760 5760 5760 5760 5761 5760 5760 5760 5759 5759 5758 5757 5756 5754 5754 5753 5752 5751 5750 5749 5748 5747 5746 5745 5744 5744
5764 5761 5759 5756 5753 5751 5749 5747 5745 5744 5743 5743 5743 5743 5743 5743 5745 5746 5748 5748 5748 5749 5749 5748 5748 5748 5747 5747 5746 5744 5742 5742 5741 5740 5738 5737 5736 5735 5734 5733 5732 5732 5731
5753 5750 5747 5744 5741 5738 5735 5733 5730 5729 5728 5727 5728 5729 5729 5729 5731 5732 5733 5735 5736 5736 5736 5736 5736 5735 5734 5734 5733 5732 5730 5729 5728 5727 5725 5724 5723 5722 5721 5720 5719 5718 5717
5741 5739 5735 5732 5728 5725 5721 5718 5715 5713 5711 5711 5711 5712 5714 5715 5716 5717 5719 5720 5722 5723 5722 5723 5723 5722 5721 5720 5719 5718 5717 5715 5714 5713 5712 5710 5709 5708 5707 5705 5704 5703 5702
5729 5726 5722 5718 5714 5710 5705 5701 5698 5696 5694 5693 5693 5694 5696 5699 5701 5702 5704 5706 5707 5708 5709 5709 5709 5708 5707 5706 5705 5704 5703 5702 5700 5699 5697 5695 5694 5693 5691 5690 5688 5687 5685
5716 5712 5708 5703 5698 5693 5688 5683 5679 5676 5674 5674 5674 5675 5678 5681 5684 5687 5689 5691 5693 5693 5694 5695 5694 5694 5693 5691 5691 5690 5689 5687 5686 5684 5682 5680 5678 5676 5675 5673 5671 5669 5668
5703 5699 5693 5687 5681 5675 5669 5662 5658 5655 5653 5654 5655 5657 5660 5663 5667 5670 5673 5676 5678 5679 5679 5680 5680 5680 5677 5676 5675 5674 5673 5672 5670 5668 5666 5663 5661 5658 5656 5654 5652 5650 5648
5691 5685 5679 5672 5664 5657 5649 5643 5638 5635 5634 5635 5636 5639 5642 5646 5650 5655 5658 5661 5663 5665 5665 5666 5665 5664 5663 5662 5660 5659 5658 5656 5654 5651 5649 5646 5643 5640 5638 5635 5632 5629 5627
5679 5673 5665 5657 5649 5640 5632 5626 5621 5619 5618 5618 5620 5623 5626 5631 5635 5640 5643 5646 5649 5650 5651 5652 5651 5650 5649 5647 5646 5644 5642 5640 5637 5633 5630 5627 5624 5621 5617 5614 5611 5608 5605
5669 5662 5654 5645 5636 5628 5620 5613 5609 5606 5605 5605 5607 5610 5613 5617 5622 5626 5629 5633 5635 5637 5638 5638 5638 5637 5635 5634 5632 5629 5626 5622 5619 5615 5611 5608 5604 5600 5597 5593 5589 5585 5582
5660 5652 5644 5635 5627 5619 5611 5605 5601 5598 5596 5596 5598 5600 5603 5606 5610 5614 5618 5621 5623 5625 5626 5627 5626 5624 5622 5620 5617 5613 5609 5605 5601 5597 5593 5589 5584 5579 5575 5570 5566 5562 5557
5652 5645 5637 5629 5620 5613 5606 5600 5595 5592 5591 5590 5591 5592 5594 5597 5600 5604 5608 5610 5613 5614 5615 5614 5613 5611 5609 5606 5602 5598 5594 5589 5584 5579 5575 5569 5564 5558 5551 5546 5541 5536 5532
5645 5638 5631 5624 5616 5609 5603 5597 5592 5589 5587 5585 5585 5586 5588 5590 5593 5596 5599 5601 5603 5604 5604 5603 5601 5599 5596 5592 5588 5583 5579 5574 5567 5563 5557 5549 5542 5535 5528 5522 5517 5512 5508
5639 5633 5626 5620 5613 5607 5601 5596 5591 5588 5586 5584 5583 5583 5584 5586 5588 5590 5591 5593 5594 5594 5593 5592 5590 5586 5583 5579 5574 5569 5563 5556 5549 5543 5538 5529 5521 5515 5507 5501 5496 5492 5487
5634 5628 5623 5617 5611 5605 5600 5595 5591 5588 5585 5584 5583 5582 5582 5583 5584 5585 5586 5586 5585 5585 5584 5582 5579 5574 5570 5565 5559 5553 5546 5538 5530 5524 5519 5513 5504 5498 5489 5482 5478 5474 5470
5629 5624 5619 5614 5609 5604 5599 5595 5591 5588 5586 5584 5583 5582 5581 5580 5581 5580 5580 5579 5578 5576 5573 5570 5566 5561 5556 5549 5543 5536 5528 5521 5513 5505 5501 5497 5490 5485 5476 5468 5463 5459 5456
5625 5620 5616 5611 5607 5603 5599 5595 5592 5589 5586 5584 5582 5581 5580 5579 5577 5576 5574 5572 5570 5567 5563 5558 5553 5547 5540 5534 5526 5519 5512 5505 5498 5491 5485 5481 5475 5471 5467 5458 5452 5447 5443